OPS 4682 DEB, 38453

Orbit data source: Space-Track

OPS 4682 DEB, 38453 is space debris in LEO originally from a launch on Sat, 03 Apr 1965 UTC launched from the Air Force Western Test Range (AFWTR). Debris objects in space refer to the collection of defunct objects orbiting the Earth. Examples of debris include non-operational satellites, rocket bodies, and fragments generated from explosions, collisions, or faulty payload assembly.

Loading next visibility...
Identifier
38453, 1965-027FJ
Orbit
LEO
Country
Flag of USUS
Related business
Manufacturer
Unknown
Mission
Spacecraft
Bus & Motor
Unknown
Mass
Unknown
Launch date (UTC)
1965-04-03 (61 years ago)
Launch vehicle
Unknown
Launch site
Air Force Western Test Range (AFWTR)
Object type
Payload
Rocket body
Debris
Shape & HBR
Unknown shape, 0.1 m
Radar Cross Section
Small (<0.1 m²)

Expand to show TLE details & history
Last TLE update: 4 days ago

TLE from 4 days ago
0 OPS 4682 DEB
1 38453U 65027FJ  26172.28895639  .00000356  00000-0  12434-2 0  9991
2 38453  90.2411   6.6849 0024893 209.5128 150.4587 12.94925154575524
Epoch: 2026-06-21T06:56Z
TLE epoch observation values (Epoch: 2026-06-21T06:56:05.832Z)
Latitude
-0.00004°
Longitude
-6.83077°
Altitude
1,301.515 km
Speed
7.198 km/s
True Right ascension
00h 26m 44s
True Declination
0° 00' 00"
Sunlit
Object was in daylight at epoch
Visualization orbit readout
Latitude
Unknown
Longitude
Unknown
Altitude
Unknown
Speed
Unknown
Apparent Right ascension
Unknown
Apparent Declination
Unknown
Sunlit
N/A
Visualization observer readout
Local Sidereal Time
06:50:52
Azimuth
Unknown
Elevation
Unknown
Doppler factor
Unknown
Orbital elements
Apogee altitude
1,298.231 km
Perigee altitude
1,260.108 km
Semi-major axis
7,657.307 km
Eccentricity
0.00249
Inclination
90.2411°
RAAN
6.6849°
Arg. of periapsis
209.5128°
True anomaly
150.59896°
Mean anomaly
150.4587°
Eccentric anomaly
150.52887°
Mean motion
3.23914 °/min
Orbital period
111.14 mins
BSTAR
0.0012434
Loading maneuver chart data...
Computing Atmospheric mass density...
Loading historical data...
Loading historical data...
Loading historical data...
Loading historical data...
Loading historical data...
Loading historical data...
Loading historical data...

Documentation

Showing up to 5 results
|